Regional Weather Roundup
Issued by NWS Kansas City/Pleasant Hill, MO

Home | Current Version | Previous Version | Graphics & Text | Print | Product List | Glossary Off
Versions: 1 2 3 4 5 6 7 8 9 10 11 12 13 14 15 16 17 18 19 20 21 22 23 24 25 26 27 28 29 30 31 32 33 34 35 36 37 38 39 40 41 42 43 44 45 46 47 48 49 50

000
ASUS43 KEAX 211210
RWREAX

WEATHER ROUNDUP FOR EASTERN KANSAS AND NORTHWEST MISSOURI
NATIONAL WEATHER SERVICE KANSAS CITY/PLEASANT HILL MO
700 AM CDT THU AUG 21 2014

KSZ040-057-103>105-MOZ028-029-037-043-211300-
...KANSAS CITY METROPOLITAN AREA...

CITY           SKY/WX    TMP DP  RH WIND       PRES   REMARKS
K.C. INTL      MOCLDY    78  69  73 S15       29.90R
6HR MIN TEMP:  77; 6HR MAX TEMP:  80;

K.C. DOWNTOWN  CLEAR     80  69  69 SW10      29.89R
6HR MIN TEMP:  79; 6HR MAX TEMP:  83;

LEES SUMMIT    PTCLDY    76  69  79 S9        29.92R
6HR MIN TEMP:  75; 6HR MAX TEMP:  79;

OLATHE - IXD   PTCLDY    77  70  79 S13       29.92R
6HR MIN TEMP:  77; 6HR MAX TEMP:  79;

OLATHE - OJC   PTCLDY    76  70  82 S13       29.91R
6HR MIN TEMP:  75; 6HR MAX TEMP:  77;

LAWRENCE       CLEAR     80  69  69 S13       29.88R

$$

MOZ001>008-011>017-020>025-030>033-038>040-044>046-053-054-211300-
...NORTHERN AND CENTRAL MISSOURI...

CITY           SKY/WX    TMP DP  RH WIND       PRES   REMARKS
ST. JOSEPH     PTCLDY    76  70  82 S10       29.86R
6HR MIN TEMP:  76; 6HR MAX TEMP:  80;

MOSBY          SUNNY     73  68  83 SE3       29.89S
WHITEMAN AFB   PTCLDY    73  64  75 S13       29.93S
6HR MIN TEMP:  72; 6HR MAX TEMP:  75;

CLINTON        PTCLDY    75  70  83 S8        29.96R
SEDALIA        CLEAR     77  68  73 S14       29.95S
6HR MIN TEMP:  75; 6HR MAX TEMP:  79;

WARSAW         NOT AVBL
MARSHALL       CLEAR     77  70  78 S10       29.94R
CHILLICOTHE      N/A     75  68  78 S8        29.90R
6HR MIN TEMP:  75; 6HR MAX TEMP:  80;

MOBERLY        CLEAR     75  66  73 S13G20    29.94R
KIRKSVILLE     CLEAR     73  67  81 S9        29.92R
6HR MIN TEMP:  73; 6HR MAX TEMP:  77;


$$

MOZ041-047>049-056>058-063>065-088>090-097-211300-
...EASTERN AND SOUTHERN MISSOURI...

CITY           SKY/WX    TMP DP  RH WIND       PRES   REMARKS
ST. LOUIS INTL PTCLDY    76  68  76 SW10      29.98R
6HR MIN TEMP:  75; 6HR MAX TEMP:  79;

SPIRIT OF STL  CLEAR     74  68  81 SW7       29.97R
COLUMBIA       CLEAR     71  68  90 S9        29.96S
JEFFERSON CITY CLEAR     72  67  84 VRB3      29.96R
MEXICO         CLEAR     73  73 100 S9        29.95R
HANNIBAL       CLEAR     75  68  78 S10       29.94R
ROLLA          CLEAR     73  67  81 S10       29.99S
LEBANON        CLEAR     73  68  83 S9        30.03R
OSAGE BEACH    CLEAR     72  66  83 S6        29.99R
SPRINGFIELD    CLEAR     73  69  87 S12       30.02R
BRANSON        CLEAR     75  70  83 S6        30.06R
NEVADA         CLEAR     75  68  78 S13       29.97R
JOPLIN         CLEAR     78  69  73 S17G24    29.98R
WEST PLAINS    CLEAR     74  70  87 S6        30.08R

$$

IAZ060-094-KSZ022-034>040-054-083-096-NEZ052-066-093-211300-
...KANSAS...SOUTHEAST NEBRASKA AND IOWA...

CITY           SKY/WX    TMP DP  RH WIND       PRES   REMARKS
TOPEKA         CLEAR     80  71  74 S13G21    29.87R
6HR MIN TEMP:  80; 6HR MAX TEMP:  83;

MANHATTAN      CLEAR     79  68  69 S14       29.85R
EMPORIA        CLEAR     74  69  85 S15       29.90R
CHANUTE        CLEAR     77  70  79 S15       29.94R
WICHITA        PTCLDY    76  68  76 S13       29.89R
OMAHA          CLOUDY    80  67  64 S12       29.81R
LINCOLN        LGT RAIN  75  67  76 W6        29.84R
FALLS CITY     MOCLDY    79  69  71 SW8G17    29.83R
LAMONI         PTCLDY    72  68  87 S10       29.87R
DES MOINES     CLOUDY    77  69  76 SW9       29.82R

$$




USA.gov is the U.S. government's official web portal to all federal, state and local government web resources and services.